[Date Prev][Date Next][Thread Prev][Thread Next] - [Date Index][Thread Index][Author Index]

2 Line ISS Keps 1-27



ISS
1 25544U 98067A   05027.24126278  .00019195  00000-0  15805-3 0  6811
2 25544  51.6463 261.5844 0009465  35.9543  67.1064 15.70365374353523
----
Via the sarex mailing list at AMSAT.ORG courtesy of AMSAT-NA.
To unsubscribe, send "unsubscribe sarex" to Majordomo@amsat.org



AMSAT Top AMSAT Home